Regional Weather Roundup
Issued by NWS

Home | Current Version | Previous Version | Graphics & Text | Print | Product List | Glossary On
Versions: 1 2 3 4 5 6 7 8 9 10 11 12 13 14 15 16 17 18 19 20 21 22 23 24 25 26 27 28
000
ASUS45 KTFX 271710
RWRMT
MONTANA REGIONAL WEATHER ROUNDUP
NATIONAL WEATHER SERVICE GREAT FALLS MT
1100 AM MDT SAT MAY 27 2017

NOTE: "FAIR" INDICATES FEW OR NO CLOUDS BELOW 12000 FEET WITH NO
SIGNIFICANT WEATHER AND/OR OBSTRUCTIONS TO VISIBILITY.

MTZ001>007-043-271800-
WEST OF THE DIVIDE

CITY           SKY/WX    TMP DP  RH WIND       PRES   REMARKS
KALISPELL      SUNNY     63  44  50 CALM      30.13F
MISSOULA       PTSUNNY   60  44  55 CALM      30.19S
BUTTE          PTSUNNY   58  33  39 NW10      30.21S
MULLAN PASS    SUNNY     55  34  45 VRB6      30.24R
ANACONDA         N/A     61  34  36 E3        30.18S
DEER LODGE       N/A     61  39  44 CALM      30.21S
EUREKA           N/A     61  41  48 CALM      30.14F
HAMILTON         N/A     66  37  34 CALM      30.18F
PLAINS           N/A     64  44  48 CALM      30.14
$$

MTZ008-052>055-271800-
SOUTHWEST MONTANA

CITY           SKY/WX    TMP DP  RH WIND       PRES   REMARKS
BOZEMAN        SUNNY     60  40  47 CALM      30.18S
DILLON         SUNNY     59  35  40 SW5       30.20S
ENNIS          SUNNY     59  36  41 VRB5G12   30.25F
THREE FORKS      N/A     63  41  44 W5        30.14F
$$

MTZ009-010-012-014-046-048-049-054-271800-
EAST SLOPES AND CENTRAL MONTANA

CITY           SKY/WX    TMP DP  RH WIND       PRES   REMARKS
CUT BANK       MOSUNNY   69  33  26 NW12      30.07R
GREAT FALLS    MOSUNNY   67  39  35 W10       30.08F
MALMSTROM AFB  PTSUNNY   65  41  41 W13       30.08S
HELENA         SUNNY     62  42  47 CALM      30.14F
CHOTEAU          N/A     68  32  26 W9        30.10S
CONRAD           N/A     71  48  43 W15       30.08S
$$

MTZ011-013-016-021-045-047-050-051-271800-
NORTH CENTRAL MONTANA

CITY           SKY/WX    TMP DP  RH WIND       PRES   REMARKS
HAVRE          MOSUNNY   70  42  36 W14       29.98F
LEWISTOWN      CLOUDY    64  36  35 NW14G24   30.07S
N BAR RANCH      N/A     64  36  34 NW21G28   30.09S
CHINOOK          N/A     70  41  35 W15G22    29.97R
FORT BENTON      N/A     70  36  28 CALM      30.04S
$$

MTZ017>020-022>027-061-062-271800-
NORTHEAST MONTANA

CITY           SKY/WX    TMP DP  RH WIND       PRES   REMARKS
GLASGOW        SUNNY     68  40  35 NW12      29.91S
JORDAN           N/A     66  37  34 W17       29.95S
SIDNEY         MOSUNNY   69  39  33 W16G22    29.87F
WOLF POINT     MOSUNNY   74  40  29 W13G26    29.88F
MALTA          MOSUNNY   68  41  37 NW12G18   29.92F
PLENTYWOOD       N/A     68  30  24 NW21      29.83F
POPLAR           N/A     68  41  37 S15       29.87F
SCOBEY           N/A     69  36  29 W16       29.86
$$

MTZ028>42-056>058-271800-
SOUTHCENTRAL AND SOUTHEAST MONTANA

CITY           SKY/WX    TMP DP  RH WIND       PRES   REMARKS
BAKER          MOSUNNY   65  40  39 W18G25    29.97F
BILLINGS       MOSUNNY   66  39  37 SW9       30.08S
LIVINGSTON     SUNNY     62  39  42 W16       30.15S
MILES CITY     CLOUDY    65  36  34 W20G28    29.99S
BIG TIMBER     SUNNY     63  39  42 W20       30.15S
EKALAKA          N/A     62  39  42 W8        29.99
FORSYTH          N/A     63  39  42 W10       30.01S
LAUREL           N/A     65  36  34 W5        30.07F
ROUNDUP          N/A     66  34  30 W12       29.96S
$$

REGIONAL REPORTS...DAKOTAS

CITY           SKY/WX    TMP DP  RH WIND       PRES   REMARKS
WILLISTON      SUNNY     72  42  34 W14G21    29.85F
MINOT          SUNNY     71  40  32 W14G22    29.79F
DICKINSON      MOSUNNY   67  35  30 W17G24    29.89F
BEACH            N/A     61  39  44 W23G29    29.96S
CROSBY         PTSUNNY   66  34  30 W24G32    29.81S
TIOGA          CLOUDY    64  39  39 W17G23    29.85S
WATFORD CITY     N/A     66  43  42 SW15      29.85F
BISMARCK       PTSUNNY   71  40  32 W14G23    29.87F
GRAND FORKS    MOSUNNY   75  43  31 W23       29.77S
FARGO          SUNNY     74  38  27 W15G29    29.81S
BUFFALO SD       N/A     67  36  31 W22G28    29.93S
RAPID CITY     MOSUNNY   68  37  32 N16G25    30.02S
$$

REGIONAL REPORTS...WYOMING/IDAHO/WASHINGTON

CITY           SKY/WX    TMP DP  RH WIND       PRES   REMARKS
GILLETTE       SUNNY     60  39  45 NW12      30.08S
SHERIDAN       SUNNY     63  38  39 NW15      30.09S
BUFFALO WY     SUNNY     60  33  36 N17G26    30.12R
CODY           MOSUNNY   59  26  28 NW7       30.17R
YELLOWSTONE LA   N/A     39  34  82 E6        30.29S
IDAHO FALLS    MOSUNNY   53  43  68 VRB3      30.26S
SALMON         SUNNY     57  39  51 W5        30.20S
BOISE          SUNNY     65  40  39 CALM      30.19S
SPOKANE        MOSUNNY   68  43  40 S7        30.14R
$$

REGIONAL REPORTS...ALBERTA

CITY           SKY/WX    TMP DP  RH WIND       PRES   REMARKS
EDMONTON       SUNNY     70  46  43 NW7       29.91R
CALGARY        MOSUNNY   70  36  28 NW14G25   30.03R
LETHBRIDGE     MOSUNNY   77  41  27 NW12        N/A
MEDICINE HAT   MOSUNNY   73  41  31 W9        29.95S
WATERTON GATE    N/A     66  37  34 SW15G23     N/A
CARDSTON         N/A     68  39  34 NW8         N/A
MILK RIVER       N/A     70  41  35 NW16G22     N/A
ONEFOUR          N/A     68  39  34 NW14G20     N/A
$$

REGIONAL REPORTS...SASKATCHEWAN

CITY           SKY/WX    TMP DP  RH WIND       PRES   REMARKS
SWIFT CURRENT  CLOUDY    64  41  42 NW21G30   29.89R
REGINA         PTSUNNY   61  37  41 N17       29.82R
SASKATOON      MOSUNNY   66  36  32 N18G26    29.82R
CYPRESS HILLS    N/A     63  34  34 NW9G18      N/A
ROCKGLEN         N/A     66  36  32 NW16G28     N/A
$$




USA.gov is the U.S. government's official web portal to all federal, state and local government web resources and services.